Regional Weather Roundup
Issued by NWS Northern Indiana

Home | Current Version | Previous Version | Text Only | Print | Product List | Glossary Off
Versions: 1 2 3 4 5 6 7 8 9 10 11 12 13 14 15 16 17 18 19 20 21 22 23 24 25 26 27 28 29 30 31 32 33 34 35 36 37 38 39 40 41 42 43 44 45 46 47 48 49 50

000
ASUS43 KIWX 010310
RWRIWX

KIWX WEATHER ROUNDUP
NATIONAL WEATHER SERVICE NORTHERN INDIANA
1100 PM EDT SUN AUG 31 2014

NOTE: "FAIR" INDICATES FEW OR NO CLOUDS BELOW 12,000 FEET WITH NO
SIGNIFICANT WEATHER AND/OR OBSTRUCTIONS TO VISIBILITY.

* THESE STATIONS ARE NOT UNDER NWS QUALITY CONTROL. THEY ALSO MAY NOT
  REPORT WEATHER SUCH AS PRECIPITATION OR FOG.

INZ001>027-010400-
NORTHERN INDIANA

CITY           SKY/WX    TMP DP  RH WIND       PRES   REMARKS
GARY*          CLEAR     75  71  86 S5        29.87F
VALPARAISO     CLEAR     73  69  87 SE5       29.89F
MICHIGAN CITY* CLEAR     70  68  94 SE3       29.89F
LAPORTE*       CLEAR     68  68 100 CALM      29.91F
KNOX*          CLEAR     69  66  91 SE3       29.90F
SOUTH BEND     CLEAR     73  67  81 CALM      29.91F
GOSHEN         PTCLDY    73  69  87 SE7       29.92F
MONTICELLO*    CLEAR     73  72  95 SE3       29.91F
LOGANSPORT*    CLEAR     70  66  88 S3        29.93F
ROCHESTER*     PTCLDY    73  72  94 S3        29.93S FOG
WARSAW*        CLEAR     70  68  94 CALM      29.93F
ANGOLA*        CLEAR     70  61  73 CALM      29.94F
FORT WAYNE     MOCLDY    72  69  90 S6        29.95F
HUNTINGTON*    MOCLDY    73  71  93 S5        29.94F
PERU/GRISSOM   CLEAR     72  72 100 S7        29.93F
MARION*        PTCLDY    71  69  90 S6        29.95F FOG

$$
INZ028>050-010400-
CENTRAL INDIANA

CITY           SKY/WX    TMP DP  RH WIND       PRES   REMARKS
LAFAYETTE      PTCLDY    74  71  91 S7        29.91F
KOKOMO*        CLEAR     72  66  83 S7        29.94F
MUNCIE*        PTCLDY    74  68  81 S7        29.97S
INDIANAPOLIS   PTCLDY    74  69  85 S10       29.94F

$$
MIZ043>046-050>051-056>058-064>065-071>073-077>080-010400-
SOUTHWEST LOWER MICHIGAN

CITY           SKY/WX    TMP DP  RH WIND       PRES   REMARKS
BATTLE CREEK   CLEAR     70  67  90 SE3       29.93F
BENTON HARBOR  CLEAR     69  65  86 SE5       29.88F
COLDWATER*     PTCLDY    71  70  96 CALM      29.93F FOG
HILLSDALE*     CLEAR     67  67 100 CALM      29.95F FOG
HOLLAND        CLEAR     70  66  87 CALM      29.89F
GRAND RAPIDS   CLEAR     68  67  96 CALM      29.90F
KALAMAZOO      CLEAR     70  66  87 CALM      29.92F
STURGIS*         N/A     70  68  94 CALM      29.92F
THREE RIVERS*  FAIR      70  69  94 CALM      29.92F

$$
OHZ001>008-015>018-024>025-010400-
NORTHWEST OHIO

CITY           SKY/WX    TMP DP  RH WIND       PRES   REMARKS
WAUSEON*       FAIR      70  68  94 CALM      29.94F
DEFIANCE       CLEAR     73  68  84 SW5       29.94F
FINDLAY        CLEAR     72  69  90 S8        29.96F
TOLEDO EXPRESS CLEAR     73  69  87 S3        29.94F
TOLEDO METCALF CLEAR     74  69  85 S7        29.95F
LIMA           PTCLDY    72  68  87 S7        29.98S

$$
&&



USA.gov is the U.S. government's official web portal to all federal, state and local government web resources and services.